This demonstration page uses our WeatherBlox Daily Observations layout. Learn more.

Left ArrowRight Arrow

47.50024, -111.30081

Hourly Observations for April 25, 2018

Temp ( °F °C ) Dew Point ( °F °C ) Humidity (%) Winds ( mph kmh ) Pressure ( in mb ) Visibility ( mi km ) Precip ( " mm )
12:53 am 00:53 Clear 45 7.2 23 -5 42 42 S 16 26 30.16 1021 10 16 0.00 0.00
1:53 am 01:53 Clear 46 7.8 23 -5 40 40 SSW 16 26 30.13 1020 10 16 0.00 0.00
2:53 am 02:53 Clear 48 8.9 22 -5.6 36 36 S 20 31 30.10 1019 10 16 0.00 0.00
3:53 am 03:53 Clear 45 7.2 22 -5.6 40 40 SSW 12 19 30.08 1019 10 16 0.00 0.00
4:53 am 04:53 Clear 48 8.9 22 -5.6 36 36 SSW 18 30 30.05 1018 10 16 0.00 0.00
5:53 am 05:53 Clear 48 8.9 23 -5 37 37 SW 20 31 30.04 1017 10 16 0.00 0.00
6:53 am 06:53 Sunny 47 8.3 23 -5 39 39 SSW 15 24 30.03 1017 10 16 0.00 0.00
7:53 am 07:53 Sunny 49 9.4 23 -5 36 36 SSW 17 28 30.06 1018 10 16 0.00 0.00
8:53 am 08:53 Sunny 50 10 24 -4.4 36 36 SSW 20 31 30.06 1018 10 16 0.00 0.00
9:53 am 09:53 Sunny 53 11.7 25 -3.9 34 34 SW 18 30 30.05 1018 10 16 0.00 0.00
10:53 am 10:53 Sunny 57 13.9 24 -4.4 28 28 WSW 21 33 30.04 1017 10 16 0.00 0.00
11:53 am 11:53 Mostly Sunny 64 17.8 24 -4.4 22 22 WNW 26 43 30.03 1017 10 16 0.00 0.00
12:03 pm 12:03 Partly Cloudy 56 13.3 28 -2.2 34 34 NNW 28 44 29.97 1015 10 16 0.00 0.00
12:10 pm 12:10 Mostly Sunny 54 12.2 28 -2.2 37 37 NNW 28 44 30.03 1017 10 16 0.00 0.00
12:53 pm 12:53 Mostly Sunny 51 10.6 29 -1.7 43 43 NNW 25 41 30.14 1021 10 16 0.00 0.00
1:53 pm 13:53 Cloudy 54 12.2 30 -1.1 40 40 N 17 28 30.14 1021 10 16 0.00 0.00
2:53 pm 14:53 Cloudy 52 11.1 29 -1.7 41 41 N 13 20 30.17 1022 10 16 0.00 0.00
3:53 pm 15:53 Cloudy 51 10.6 33 0.6 50 50 NNE 14 22 30.21 1023 10 16 0.00 0.03
4:53 pm 16:53 Cloudy 51 10.6 32 0 48 48 NE 5 7 30.21 1023 10 16 0.00 0.00
5:53 pm 17:53 Mostly Cloudy 52 11.1 32 0 47 47 VRB 5 7 30.22 1023 10 16 0.00 0.00
6:53 pm 18:53 Cloudy 52 11.1 34 1.1 50 50 S 8 13 30.22 1023 10 16 0.00 0.00
7:53 pm 19:53 Sunny 48 8.9 34 1.1 58 58 SSW 7 11 30.23 1024 10 16 0.00 0.00
8:53 pm 20:53 Clear 39 3.9 33 0.6 79 79 SSW 10 17 30.27 1025 10 16 0.00 0.00
9:53 pm 21:53 Clear 38 3.3 32 0 79 79 SSW 10 17 30.27 1025 10 16 0.00 0.00
10:53 pm 22:53 Clear 38 3.3 31 -0.6 76 76 SSW 9 15 30.26 1025 10 16 0.00 0.00
11:53 pm 23:53 Clear 41 5 32 0 70 70 SSW 12 19 30.23 1024 10 16 0.00 0.00

Powered by AerisWeather